Weather History for Lafayette, IN

Change the Weather History Date:

Friday, September 20, 2013

  Actual Average Record
Temperature  
Mean Temperature 67 °F 64 °F  
Max Temperature 75 °F 76 °F 92 °F (1984)
Min Temperature 59 °F 53 °F 42 °F (1979)
Degree Days  
Heating Degree Days 0 3  
Month to date heating degree days 30 30  
Since 1 July heating degree days 50 36  
Cooling Degree Days 2 3  
Month to date cooling degree days 126 93  
Year to date cooling degree days 852 945  
Growing Degree Days 19 (Base 50)    
Moisture  
Dew Point 66 °F    
Average Humidity 87    
Maximum Humidity 100    
Minimum Humidity 73    
Precipitation  
Precipitation 0.34 in 0.08 in 2.26 in (1957)
Month to date precipitation 3.66 1.77  
Year to date precipitation 31.29 27.32  
Sea Level Pressure  
Sea Level Pressure 29.84 in    
Wind  
Wind Speed 7 mph (WSW)    
Max Wind Speed 17 mph    
Max Gust Speed 21 mph    
Visibility 9 miles    
Events Rain    
T = Trace of Precipitation, MM = Missing Value Source: NWS Daily Summary

Daily Weather History Graph

Daily Weather History Graph

Search for Another Location

Airport:

Trip Planner

Search our weather history database for the weather conditions in past years. The results will help you decide how hot, cold, wet, or windy it might be!

Date:

Astronomy

Sep. 20, 2013 Rise Set
Actual Time 7:33 AM EDT 7:47 PM EDT
Civil Twilight 7:06 AM EDT 8:14 PM EDT
Nautical Twilight 6:34 AM EDT 8:46 PM EDT
Astronomical Twilight 6:01 AM EDT 9:19 PM EDT
Moon 8:20 PM EDT (9/20) 8:48 AM EDT (9/20)
Length of Visible Light 13h 08m
Length of Day
12h 14m
Full, 98% of the Moon is Illuminated
Sep 20
Full
Sep 26
Last Quarter
Oct 4
New
Oct 11
First Quarter
Oct 18
Full

Hourly Weather History & Observations

Time (EDT) Temp. Dew Point Humidity Pressure Visibility Wind Dir Wind Speed Gust Speed Precip Events Conditions
12:54 AM 75.0 °F 70.0 °F 84% 29.90 in 9.0 mi SSW 6.9 mph - N/A   Clear
1:54 AM 75.0 °F 70.0 °F 84% 29.88 in 10.0 mi SSW 6.9 mph - N/A   Clear
2:54 AM 75.0 °F 70.0 °F 84% 29.87 in 10.0 mi SSW 5.8 mph - N/A   Clear
3:54 AM 73.9 °F 70.0 °F 87% 29.87 in 10.0 mi SSW 6.9 mph - N/A   Mostly Cloudy
4:23 AM 73.4 °F 69.8 °F 88% 29.89 in 10.0 mi West 5.8 mph - N/A   Mostly Cloudy
4:54 AM 73.9 °F 64.9 °F 73% 29.87 in 10.0 mi West 6.9 mph - N/A   Overcast
5:47 AM 71.6 °F 66.2 °F 83% 29.87 in 10.0 mi SSE 3.5 mph - N/A   Scattered Clouds
5:54 AM 72.0 °F 66.0 °F 81% 29.85 in 10.0 mi South 3.5 mph - N/A   Partly Cloudy
6:54 AM 72.0 °F 69.1 °F 91% 29.84 in 9.0 mi South 6.9 mph - N/A   Clear
7:54 AM 72.0 °F 68.0 °F 87% 29.86 in 9.0 mi WSW 5.8 mph - N/A   Scattered Clouds
8:16 AM 71.6 °F 69.8 °F 94% 29.88 in 9.0 mi SW 4.6 mph - N/A   Mostly Cloudy
8:54 AM 73.0 °F 66.9 °F 81% 29.87 in 10.0 mi WSW 11.5 mph 18.4 mph N/A   Mostly Cloudy
9:31 AM 71.6 °F 66.2 °F 83% 29.88 in 10.0 mi SW 6.9 mph - 0.00 in Rain Light Rain
9:54 AM 70.0 °F 66.0 °F 87% 29.87 in 9.0 mi SW 5.8 mph - 0.00 in Rain Light Rain
10:54 AM 71.1 °F 66.0 °F 84% 29.88 in 10.0 mi WSW 8.1 mph - 0.00 in   Mostly Cloudy
11:54 AM 71.1 °F 66.9 °F 87% 29.88 in 10.0 mi SW 8.1 mph - 0.00 in Rain Light Rain
12:54 PM 71.1 °F 66.0 °F 84% 29.86 in 10.0 mi WSW 5.8 mph - 0.00 in   Mostly Cloudy
1:54 PM 73.9 °F 66.0 °F 76% 29.84 in 10.0 mi West 9.2 mph - N/A   Partly Cloudy
2:34 PM 73.4 °F 64.4 °F 73% 29.84 in 10.0 mi West 8.1 mph - N/A   Mostly Cloudy
2:47 PM 73.4 °F 64.4 °F 73% 29.84 in 10.0 mi West 10.4 mph - N/A   Mostly Cloudy
2:54 PM 73.0 °F 64.0 °F 73% 29.83 in 10.0 mi West 9.2 mph - N/A   Mostly Cloudy
3:07 PM 73.4 °F 64.4 °F 73% 29.83 in 10.0 mi WSW 5.8 mph - N/A   Mostly Cloudy
3:54 PM 73.9 °F 64.9 °F 73% 29.81 in 10.0 mi WSW 5.8 mph - N/A   Scattered Clouds
4:54 PM 68.0 °F 66.9 °F 96% 29.81 in 4.0 mi West 9.2 mph - 0.15 in Rain Rain
5:14 PM 68.0 °F 66.2 °F 94% 29.82 in 8.0 mi WSW 3.5 mph - 0.06 in Rain Light Rain
5:54 PM 68.0 °F 66.9 °F 96% 29.81 in 7.0 mi WSW 4.6 mph - 0.08 in Rain Light Rain
6:16 PM 68.0 °F 66.2 °F 94% 29.82 in 1.8 mi SW 4.6 mph - 0.07 in Rain Heavy Rain
6:20 PM 68.0 °F 66.2 °F 94% 29.81 in 3.0 mi Calm Calm - 0.09 in Rain Heavy Rain
6:54 PM 68.0 °F 66.9 °F 96% 29.81 in 3.0 mi SW 4.6 mph - 0.11 in Rain Light Rain
7:04 PM 68.0 °F 66.2 °F 94% 29.81 in 7.0 mi SW 5.8 mph - 0.00 in Rain Light Rain
7:54 PM 66.9 °F 66.0 °F 97% 29.80 in 10.0 mi SW 3.5 mph - 0.00 in   Mostly Cloudy
8:54 PM 66.9 °F 66.0 °F 97% 29.81 in 10.0 mi WSW 3.5 mph - N/A   Mostly Cloudy
9:01 PM 66.2 °F 66.2 °F 100% 29.82 in 10.0 mi WSW 3.5 mph - N/A   Mostly Cloudy
9:03 PM 66.2 °F 66.2 °F 100% 29.82 in 10.0 mi WSW 3.5 mph - N/A   Mostly Cloudy
9:13 PM 66.2 °F 66.2 °F 100% 29.82 in 10.0 mi WSW 3.5 mph - N/A   Mostly Cloudy
9:54 PM 66.9 °F 64.9 °F 93% 29.81 in 10.0 mi West 9.2 mph - N/A   Mostly Cloudy
10:54 PM 63.0 °F 59.0 °F 87% 29.82 in 10.0 mi WNW 5.8 mph - N/A   Overcast
11:54 PM 61.0 °F 57.0 °F 87% 29.84 in 10.0 mi WNW 5.8 mph - N/A   Overcast